Location: Trout Lake
(45.9980°N, 121.5270°W)
Time: 18:50:29
(UTC-08:00)

Cosmos 1844 Rocket - Pass Details

Date: 06 December 2023
Orbit: 822 x 846 km, 71.0° (Epoch: 22 February)

Event Time Altitude Azimuth Distance (km) Brightness Sun altitude
Rises 18:01:56 0° 198° (SSW) 3,341 6.3 -16.8°
Reaches altitude 10° 18:04:21 10° 197° (SSW) 2,412 5.5 -17.2°
Maximum altitude 18:09:51 74° 113° (ESE) 860 2.6 -18.1°
Enters shadow 18:13:29 22° 32° (NNE) 1,728 3.9 -18.7°
